This demonstration page uses our WeatherBlox Daily Observations layout. Learn more.

40.92945, -100.16068

Hourly Observations for March 8, 2015

Temp ( °F °C ) Dew Point ( °F °C ) Humidity (%) Winds ( mph kmh ) Pressure ( in mb ) Visibility ( mi km ) Precip ( " mm )
12:15 am 00:15 Clear 36 2.4 21 -6.1 54 54 ESE 8 13 30.12 1020 10 16.0934 N/A
12:35 am 00:35 Clear 39 4.1 21 -6.1 48 48 ESE 8 13 30.09 1019 10 16.0934 N/A
12:55 am 00:55 Clear 42 5.6 21 -6.2 43 43 SE 6 9 30.09 1019 10 16.0934 N/A
1:15 am 01:15 Clear 41 5.1 21 -6.1 45 45 Calm 30.09 1019 10 16.0934 N/A
1:35 am 01:35 Clear 40 4.7 21 -6.1 46 46 SSE 6 9 30.09 1019 10 16.0934 N/A
1:55 am 01:55 Clear 41 4.8 22 -5.6 47 47 SSE 3 6 30.09 1019 10 16.0934 N/A
3:15 am 03:15 Clear 29 -1.7 19 -7.2 66 66 Calm 30.18 1022 10 16.0934 N/A
3:35 am 03:35 Clear 29 -1.7 20 -6.9 68 68 Calm 30.18 1022 10 16.0934 N/A
3:55 am 03:55 Clear 28 -2.5 20 -6.9 72 72 S 6 9 30.18 1022 10 16.0934 N/A
4:15 am 04:15 Clear 30 -0.9 20 -6.6 66 66 NW 9 15 30.15 1021 10 16.0934 N/A
4:35 am 04:35 Clear 29 -1.5 21 -6.2 71 71 WNW 8 13 30.15 1021 10 16.0934 N/A
4:55 am 04:55 Clear 31 -0.8 21 -6.1 68 68 W 5 7 30.15 1021 10 16.0934 N/A
5:15 am 05:15 Clear 32 -0.1 21 -6.2 64 64 SW 5 7 30.15 1021 10 16.0934 N/A
5:35 am 05:35 Clear 31 -0.3 21 -6.2 65 65 W 3 6 30.12 1020 10 16.0934 N/A
5:55 am 05:55 Clear 31 -0.7 21 -6 68 68 NW 10 17 30.15 1021 10 16.0934 N/A
6:15 am 06:15 Clear 29 -1.6 21 -6 72 72 NW 10 17 30.18 1022 10 16.0934 N/A
6:35 am 06:35 Clear 31 -0.3 23 -5.1 70 70 WNW 9 15 30.15 1021 10 16.0934 N/A
6:55 am 06:55 Clear 31 -0.4 22 -5.5 69 69 W 12 19 30.15 1021 10 16.0934 N/A
7:15 am 07:15 Clear 32 -0.1 23 -5.1 69 69 W 10 17 30.15 1021 10 16.0934 N/A
7:35 am 07:35 Clear 32 0.1 24 -4.7 70 70 WNW 10 17 30.15 1021 10 16.0934 N/A
7:55 am 07:55 Clear 32 0 24 -4.5 72 72 WNW 8 13 30.18 1022 10 16.0934 N/A
8:15 am 08:15 Sunny 30 -1 24 -4.6 77 77 NNW 8 13 30.18 1022 10 16.0934 N/A
8:35 am 08:35 Sunny 34 1.1 26 -3.5 72 72 N 10 17 30.18 1022 10 16.0934 N/A
8:55 am 08:55 Sunny 35 1.4 26 -3.3 71 71 N 12 19 30.21 1023 10 16.0934 N/A
9:15 am 09:15 Sunny 36 2 27 -3 70 70 N 13 20 30.18 1022 10 16.0934 N/A
9:35 am 09:35 Sunny 37 2.5 27 -2.7 69 69 N 15 24 30.18 1022 10 16.0934 N/A
9:55 am 09:55 Sunny 37 3 28 -2.5 67 67 N 12 19 30.18 1022 10 16.0934 N/A
10:15 am 10:15 Sunny 38 3.6 28 -2.3 66 66 N 13 20 30.21 1023 10 16.0934 N/A
10:35 am 10:35 Sunny 40 4.2 28 -2.2 63 63 NNE 13 20 30.21 1023 10 16.0934 N/A
10:55 am 10:55 Sunny 41 5 28 -2 61 61 N 14 22 30.18 1022 10 16.0934 N/A
11:15 am 11:15 Sunny 42 5.8 29 -1.8 58 58 N 16 26 30.18 1022 10 16.0934 N/A
11:35 am 11:35 Sunny 44 6.6 29 -1.5 57 57 N 12 19 30.18 1022 10 16.0934 N/A
11:55 am 11:55 Sunny 45 7.4 29 -1.6 53 53 NNE 15 24 30.18 1022 10 16.0934 N/A
12:15 pm 12:15 Sunny 47 8.1 29 -1.6 51 51 NNE 16 26 30.15 1021 10 16.0934 N/A
12:35 pm 12:35 Sunny 47 8.6 29 -1.6 49 49 NNE 14 22 30.15 1021 10 16.0934 N/A
12:55 pm 12:55 Sunny 49 9.4 29 -1.5 47 47 N 16 26 30.15 1021 10 16.0934 N/A
1:15 pm 13:15 Sunny 50 10.1 29 -1.4 45 45 NNE 14 22 30.15 1021 10 16.0934 N/A
1:35 pm 13:35 Sunny 51 10.6 29 -1.6 43 43 NE 14 22 30.15 1021 10 16.0934 N/A
1:55 pm 13:55 Sunny 52 11 29 -1.9 41 41 NNE 16 26 30.15 1021 10 16.0934 N/A
2:15 pm 14:15 Sunny 53 11.4 29 -1.9 40 40 NNE 15 24 30.09 1019 10 16.0934 N/A
2:35 pm 14:35 Sunny 54 12.1 28 -2.1 37 37 NNE 15 24 30.09 1019 10 16.0934 N/A
2:55 pm 14:55 Sunny 54 12.2 28 -2.3 37 37 N 13 20 30.09 1019 10 16.0934 N/A
3:15 pm 15:15 Sunny 55 12.6 27 -2.7 35 35 NE 14 22 30.09 1019 10 16.0934 N/A
3:35 pm 15:35 Sunny 56 13.1 27 -2.8 33 33 NE 12 19 30.06 1018 10 16.0934 N/A
3:55 pm 15:55 Sunny 56 13.4 26 -3.5 31 31 NE 10 17 30.06 1018 10 16.0934 N/A
4:15 pm 16:15 Sunny 57 13.8 25 -4.1 29 29 NNE 10 17 30.03 1017 10 16.0934 N/A
4:35 pm 16:35 Sunny 57 13.7 24 -4.6 28 28 NE 12 19 30.03 1017 10 16.0934 N/A
4:55 pm 16:55 Sunny 57 14 22 -5.8 25 25 NNE 10 17 30.03 1017 10 16.0934 N/A
5:15 pm 17:15 Sunny 57 14 21 -6.1 24 24 NE 8 13 30.03 1017 10 16.0934 N/A
5:35 pm 17:35 Sunny 57 13.7 21 -6 25 25 NNE 9 15 30.03 1017 10 16.0934 N/A
5:55 pm 17:55 Sunny 56 13.6 20 -6.5 24 24 NNE 12 19 30.03 1017 10 16.0934 N/A
6:15 pm 18:15 Sunny 56 13.5 20 -6.9 24 24 NE 9 15 30.03 1017 10 16.0934 N/A
6:35 pm 18:35 Sunny 55 13 21 -6.3 26 26 NE 8 13 30.06 1018 10 16.0934 N/A
6:55 pm 18:55 Sunny 54 12.3 20 -6.5 27 27 NE 8 13 30.06 1018 10 16.0934 N/A
7:15 pm 19:15 Sunny 51 10.5 20 -6.6 30 30 ENE 6 9 30.06 1018 10 16.0934 N/A
7:35 pm 19:35 Sunny 47 8.6 19 -7 33 33 ENE 7 11 30.09 1019 10 16.0934 N/A
7:55 pm 19:55 Clear 46 7.9 19 -7 34 34 E 5 7 30.12 1020 10 16.0934 N/A
8:15 pm 20:15 Clear 46 7.5 20 -6.9 36 36 E 5 7 30.12 1020 10 16.0934 N/A
8:35 pm 20:35 Clear 43 6.2 20 -6.6 40 40 E 6 9 30.15 1021 10 16.0934 N/A
8:55 pm 20:55 Clear 42 5.4 20 -6.8 41 41 E 7 11 30.15 1021 10 16.0934 N/A
9:15 pm 21:15 Clear 37 2.8 19 -7 49 49 E 5 7 30.18 1022 10 16.0934 N/A
9:35 pm 21:35 Clear 36 2.1 19 -7 51 51 Calm 30.18 1022 10 16.0934 N/A
9:55 pm 21:55 Clear 33 0.8 18 -7.7 53 53 Calm 30.21 1023 10 16.0934 N/A
10:15 pm 22:15 Clear 34 0.9 19 -7.4 54 54 Calm 30.21 1023 10 16.0934 N/A
10:35 pm 22:35 Clear 33 0.5 19 -7 58 58 Calm 30.21 1023 10 16.0934 N/A
10:55 pm 22:55 Clear 33 0.4 20 -6.7 59 59 Calm 30.21 1023 10 16.0934 N/A
11:15 pm 23:15 Clear 33 0.5 20 -6.7 59 59 Calm 30.21 1023 10 16.0934 N/A
11:35 pm 23:35 Clear 28 -2.1 19 -7.5 67 67 Calm 30.24 1024 10 16.0934 N/A
11:55 pm 23:55 Clear 26 -3.3 18 -7.8 71 71 Calm 30.24 1024 10 16.0934 N/A

Powered by AerisWeather